SKYSAT-C12 (43797 NORAD) Tracking and Keplerian Element Data

This shows tracking and keplerian element data for the satellite.

Feedback or suggestion? Click here.




ElementValue
Catalog43797
NameSKYSAT-C12
Epoch Orbit432
Epoch Day1.78770874
Epoch Year2019
RAAN75.6827
Inclination97.7643
Eccentricity0.0014469
Argument of Perigee165.957
Mean Anonmoly194.2056
Mean Motion14.95613885
Decay Rate-2.06E-06
L11 43797U 18099AR 19001.78770874 -.00000206 00000-0 -13234-4 0 9993
L22 43797 97.7643 75.6827 0014469 165.9570 194.2056 14.95613885 4326

Live tracking and technical data element details for SKYSAT-C12 (NORAD 43797). SKYSAT-C12 can be tracked NOW for your location showing map with azimuth and elevation plus other details from your city location.

Track the satellite on the map from your city or location and see movement details for azimuth, elevation, latitude, longitude, range, height, and movement on the map or in text.







IsCatalogInMostPopularTable: catalog: 43797, numindb: 92
Update: records affected: 1



GetName: 43797 SKYSAT-C12

Hit Count: updated at: Tue, 16 Jul 2019 14:20:13 GMT